This is the latest recevied weather packets stored in our database for station/object OE5RBO. If no packets are shown the sender has not sent any weather packets the latest 10 day(s).
| Time | Temp. | Humidity | Pressure | Rain* | Wind** | Luminosity | Snow |
|---|---|---|---|---|---|---|---|
| 1787789301 | 17.22° C | 96% | 1016.3 hPa | 0 mm | - | - | - |
| 1787788701 | 17.78° C | 97% | 1016.2 hPa | 0 mm | - | - | - |
| 1787788101 | 17.22° C | 97% | 1016.5 hPa | 0 mm | - | - | - |
| 1787787501 | 17.22° C | 97% | 1016.4 hPa | 0 mm | - | - | - |
| 1787786900 | 17.22° C | 97% | 1016.5 hPa | 0 mm | - | - | - |
| 1787786299 | 17.22° C | 97% | 1016.6 hPa | 0.25 mm | - | - | - |
| 1787785099 | 17.78° C | 96% | 1016.6 hPa | 0.25 mm | - | - | - |
| 1787784498 | 17.78° C | 97% | 1016.2 hPa | 0.25 mm | - | - | - |
| 1787783898 | 17.78° C | 96% | 1016.5 hPa | 0.25 mm | - | - | - |
| 1787782697 | 18.33° C | 95% | 1016.6 hPa | 0.25 mm | - | - | - |
| 1787782097 | 18.33° C | 96% | 1016.6 hPa | 0.25 mm | - | - | - |
| 1787781497 | 18.33° C | 96% | 1016.7 hPa | 0.25 mm | - | - | - |
| 1787780896 | 18.33° C | 95% | 1016.8 hPa | 0.25 mm | - | - | - |
| 1787780296 | 18.33° C | 95% | 1016.8 hPa | 0.25 mm | - | - | - |
| 1787779696 | 18.89° C | 95% | 1016.8 hPa | 0.25 mm | - | - | - |
| 1787779095 | 18.89° C | 92% | 1016.8 hPa | 0.25 mm | - | - | - |
| 1787778495 | 19.44° C | 91% | 1016.7 hPa | 0.25 mm | - | - | - |
| 1787777894 | 20.56° C | 88% | 1016.8 hPa | 0.25 mm | - | - | - |
| 1787777294 | 20.56° C | 86% | 1016.8 hPa | 0.25 mm | - | - | - |
| 1787776094 | 21.11° C | 84% | 1016.8 hPa | 0.25 mm | - | - | - |
| 1787775493 | 21.11° C | 84% | 1016.8 hPa | 0.25 mm | - | - | - |
| 1787774893 | 21.67° C | 84% | 1016.9 hPa | 0.25 mm | - | - | - |
| 1787774292 | 21.67° C | 82% | 1017 hPa | 0.25 mm | - | - | - |
| 1787773692 | 21.67° C | 82% | 1017 hPa | 0.25 mm | - | - | - |
| 1787773091 | 22.22° C | 82% | 1017.1 hPa | 0.25 mm | - | - | - |
* Rain since midnight (hover to see other rain measurements)
** Current wind speed in m/s (hover to see current wind gust speed)